User: anonymous   Login
Location: Mentone
(34.5413°N, 85.5351°W)
Time: 12:36:16
(UTC-05:00)
Language:

UOSAT-12 - Orbit

View from above orbital plane
View from above orbital plane
View from above satellite
View from above satellite

Ground track
Ground track

The orbit data is extracted from the following two-line orbital elements,

1 25693U 99021A   18113.51670078 -.00000048  00000-0  13033-4 0  9991
2 25693  64.5557 249.1729 0049354 271.7005  87.8448 14.80793531 26110
Epoch (UTC): 23 April 2018 12:24:02
Eccentricity: 0.0049354
inclination: 64.5557°
perigee height: 592 km
apogee height: 661 km
right ascension of ascending node: 249.1729°
argument of perigee: 271.7005°
revolutions per day: 14.80793531
mean anomaly at epoch: 87.8448°
orbit number at epoch: 2611

The dashed part of the orbit path shows where the satellite is in the earth's shadow,  

DLR